Dover AFB, DE

9:21 PM EDT on June 27, 2017 (GMT -0400)
Dover Air Force Base

Weather History for KDOV - January, 2012

Change the Weather History Date:

Friday, January 27, 2012

  Actual Average Record
Temperature  
Mean Temperature 55 °F -  
Max Temperature 64 °F 43 °F 74 °F (1950)
Min Temperature 45 °F 25 °F 6 °F (1987)
Degree Days  
Heating Degree Days 10    
Growing Degree Days 5 (Base 50)    
Moisture  
Dew Point 54 °F    
Average Humidity 83    
Maximum Humidity 96    
Minimum Humidity 54    
Precipitation  
Precipitation 0.06 in - - ()
Sea Level Pressure  
Sea Level Pressure 29.54 in    
Wind  
Wind Speed 17 mph (SSW)    
Max Wind Speed 26 mph    
Max Gust Speed 38 mph    
Visibility 10 miles    
Events Rain    
Averages and records for this station are not official NWS values.
T = Trace of Precipitation, MM = Missing Value Source: NWS Daily Summary

Daily Weather History Graph

Daily Weather History Graph

Search for Another Location

Airport or City:

Trip Planner

Search our weather history database for the weather conditions in past years. The results will help you decide how hot, cold, wet, or windy it might be!

Date:

Astronomy

Jan. 27, 2012 Rise Set
Actual Time 7:13 AM EST 5:16 PM EST
Civil Twilight 6:44 AM EST 5:45 PM EST
Nautical Twilight 6:12 AM EST 6:17 PM EST
Astronomical Twilight 5:40 AM EST 6:48 PM EST
Moon 9:09 AM EST (1/27) 10:02 PM EST (1/27)
Length of Visible Light 11h 00m
Length of Day
10h 03m
Waxing Crescent, 19% of the Moon is Illuminated
Jan 27
Waxing Crescent
Jan 30
First Quarter
Feb 7
Full
Feb 14
Last Quarter
Feb 21
New

Hourly Weather History & Observations

Time (EST) Temp. Windchill Dew Point Humidity Pressure Visibility Wind Dir Wind Speed Gust Speed Precip Events Conditions
12:55 AM 52.3 °F - 50.5 °F 94% 29.74 in 10.0 mi South 9.2 mph - N/A   Partly Cloudy
1:55 AM 52.2 °F - 51.1 °F 96% 29.70 in 10.0 mi SSE 12.7 mph - N/A   Partly Cloudy
2:55 AM 55.0 °F - 53.6 °F 95% 29.66 in 10.0 mi SSE 11.5 mph - N/A   Scattered Clouds
3:55 AM 56.5 °F - 54.9 °F 94% 29.61 in 10.0 mi SSE 12.7 mph - N/A   Clear
4:54 AM 59.0 °F - 55.4 °F 88% 29.58 in 10.0 mi SSE 11.5 mph - N/A   Mostly Cloudy
4:55 AM 58.3 °F - 56.1 °F 93% 29.58 in 10.0 mi SSE 12.7 mph - N/A   Mostly Cloudy
5:44 AM 62.6 °F - 59.0 °F 88% 29.56 in 10.0 mi South 19.6 mph 29.9 mph N/A   Light Drizzle
5:55 AM 63.5 °F - 59.0 °F 85% 29.55 in 10.0 mi South 21.9 mph 29.9 mph 0.00 in   Light Drizzle
5:56 AM 62.6 °F - 59.0 °F 88% 29.55 in 10.0 mi South 19.6 mph 29.9 mph N/A   Overcast
6:35 AM 64.4 °F - 59.0 °F 83% 29.55 in 10.0 mi South 21.9 mph 28.8 mph N/A Rain Light Rain
6:55 AM 62.8 °F - 59.7 °F 90% 29.54 in 10.0 mi South 20.7 mph - 0.00 in   Light Drizzle
6:57 AM 62.6 °F - 59.0 °F 88% 29.54 in 10.0 mi South 18.4 mph 26.5 mph N/A   Mostly Cloudy
7:17 AM 62.6 °F - 59.0 °F 88% 29.53 in 10.0 mi South 21.9 mph - N/A Rain Light Rain
7:49 AM 62.6 °F - 60.8 °F 94% 29.51 in 10.0 mi South 21.9 mph 28.8 mph N/A   Overcast
7:55 AM 62.6 °F - 60.6 °F 93% 29.50 in 10.0 mi South 21.9 mph 31.1 mph 0.01 in   Light Drizzle
8:00 AM 62.6 °F - 60.8 °F 94% 29.51 in 10.0 mi South 20.7 mph 31.1 mph N/A   Light Drizzle
8:04 AM 62.6 °F - 60.8 °F 94% 29.51 in 10.0 mi South 20.7 mph - N/A   Mostly Cloudy
8:13 AM 62.6 °F - 60.8 °F 94% 29.51 in 10.0 mi South 19.6 mph 27.6 mph N/A   Light Drizzle
8:42 AM 62.6 °F - 60.8 °F 94% 29.49 in 10.0 mi South 21.9 mph 29.9 mph N/A   Overcast
8:55 AM 63.1 °F - 61.0 °F 93% 29.49 in 10.0 mi South 24.2 mph 29.9 mph 0.01 in   Overcast
9:02 AM 62.6 °F - 60.8 °F 94% 29.48 in 10.0 mi South 23.0 mph 29.9 mph N/A   Overcast
9:06 AM 62.6 °F - 60.8 °F 94% 29.48 in 10.0 mi South 23.0 mph 29.9 mph N/A   Overcast
9:53 AM 64.4 °F - 60.8 °F 88% 29.47 in 10.0 mi South 21.9 mph 34.5 mph N/A   Light Drizzle
10:09 AM 62.6 °F - 60.8 °F 94% 29.46 in 10.0 mi South 24.2 mph - N/A Rain Light Rain
10:55 AM 60.6 °F - 55.8 °F 84% 29.47 in 10.0 mi SSW 21.9 mph 26.5 mph 0.02 in   Light Drizzle
11:01 AM 60.8 °F - 55.4 °F 82% 29.46 in 10.0 mi South 18.4 mph - N/A   Overcast
11:26 AM 60.8 °F - 55.4 °F 82% 29.46 in 10.0 mi SSW 20.7 mph - N/A   Overcast
11:27 AM 60.8 °F - 55.4 °F 82% 29.45 in 10.0 mi SSW 21.9 mph - N/A   Overcast
11:30 AM 60.8 °F - 55.4 °F 82% 29.45 in 10.0 mi SSW 17.3 mph 23.0 mph N/A   Mostly Cloudy
11:33 AM 60.8 °F - 55.4 °F 82% 29.46 in 10.0 mi SSW 20.7 mph - N/A   Mostly Cloudy
11:35 AM 60.8 °F - 55.4 °F 82% 29.45 in 10.0 mi SSW 18.4 mph - N/A   Mostly Cloudy
11:36 AM 60.8 °F - 55.4 °F 82% 29.45 in 10.0 mi SSW 18.4 mph - N/A   Mostly Cloudy
11:55 AM 60.4 °F - 55.6 °F 84% 29.44 in 10.0 mi SSW 15.0 mph 25.3 mph 0.00 in   Partly Cloudy
12:55 PM 60.8 °F - 56.7 °F 86% 29.44 in 10.0 mi SW 17.3 mph 21.9 mph N/A   Mostly Cloudy
1:47 PM 62.6 °F - 55.4 °F 77% 29.46 in 7.0 mi West 24.2 mph 34.5 mph N/A Rain Rain
1:55 PM 60.4 °F - 54.0 °F 79% 29.47 in 6.0 mi West 17.3 mph 34.5 mph 0.02 in Rain Light Rain
2:05 PM 59.0 °F - 51.8 °F 77% 29.47 in 10.0 mi West 17.3 mph 28.8 mph N/A   Overcast
2:07 PM 59.0 °F - 51.8 °F 77% 29.46 in 10.0 mi West 17.3 mph 28.8 mph N/A   Light Drizzle
2:17 PM 59.0 °F - 50.0 °F 72% 29.47 in 10.0 mi West 20.7 mph 28.8 mph N/A   Mostly Cloudy
2:55 PM 59.9 °F - 45.3 °F 59% 29.49 in 10.0 mi West 25.3 mph 35.7 mph 0.00 in   Scattered Clouds
3:55 PM 57.0 °F - 40.3 °F 54% 29.57 in 10.0 mi West 21.9 mph 31.1 mph N/A   Mostly Cloudy
4:55 PM 53.4 °F - 37.0 °F 54% 29.65 in 10.0 mi WNW 26.5 mph 38.0 mph N/A   Clear
5:55 PM 50.5 °F - 35.1 °F 55% 29.71 in 10.0 mi West 21.9 mph - N/A   Clear
6:55 PM 48.6 °F - 33.8 °F 57% 29.78 in 10.0 mi West 15.0 mph - N/A   Clear
7:55 PM 46.9 °F - 33.3 °F 59% 29.83 in 10.0 mi West 17.3 mph 24.2 mph N/A   Clear
8:55 PM 45.3 °F 38.4 °F 32.5 °F 61% 29.87 in 10.0 mi West 16.1 mph - N/A   Clear